Location: Aalsum
(53.3404°N, 6.0062°E)
Time: 09:46:47
(UTC+00:00)

Cosmos 841 Rocket - Pass Details

Date: 28 January 2023
Orbit: 746 x 771 km, 74.0° (Epoch: 19 March)

Event Time Altitude Azimuth Distance (km) Brightness Sun altitude
Rises 19:03:34 0° 334° (NNW) 3,258 7.1 -25.5°
Reaches altitude 10° 19:05:59 10° 338° (NNW) 2,328 6.3 -25.9°
Enters shadow 19:10:14 53° 9° (N) 950 3.8 -26.5°
